BAW613 LIRP-EGLL

Flight info

Callsign BAW613
Flight time 1h 48m
Altitude 36000
Route SPEZI DCT ASTIG DCT AOSTA DCT ORSUD DCT MOLUS DCT IBODI DCT GOTED DCT TRO DCT CLM DCT KOPOR DCT ABNUR DCT DIMAL DCT ALESO
Aircraft A320/M-SDE3FGHIRWY/LB1

Departure

Time 2026-05-07 13:24
Airport Pisa International Airport (LIRP)

Arrival

Time 2026-05-07 15:12
Airport London Heathrow Airport (EGLL)
Time Latitude Longitude Altitude Speed Heading
2026-05-07 12:53 43.69767 10.39976 15 ft 0 kts
2026-05-07 13:13 43.69764 10.39975 15 ft 3 kts
2026-05-07 13:14 43.69738 10.39969 15 ft 4 kts
2026-05-07 13:14 43.69711 10.39967 15 ft 4 kts 347°
2026-05-07 13:14 43.69690 10.39982 18 ft 4 kts 298°
2026-05-07 13:14 43.69686 10.39994 19 ft 0 kts 280°
2026-05-07 13:17 43.69686 10.39991 18 ft 1 kts 280°
2026-05-07 13:17 43.69672 10.39950 15 ft 9 kts 211°
2026-05-07 13:18 43.69598 10.39931 15 ft 12 kts 189°
2026-05-07 13:18 43.69511 10.39912 15 ft 14 kts 189°
2026-05-07 13:18 43.69410 10.39892 16 ft 16 kts 184°
2026-05-07 13:18 43.69297 10.39905 19 ft 16 kts 173°
2026-05-07 13:19 43.69191 10.39915 22 ft 15 kts 189°
2026-05-07 13:19 43.69091 10.39833 21 ft 19 kts 217°
2026-05-07 13:19 43.68979 10.39718 21 ft 21 kts 217°
2026-05-07 13:19 43.68853 10.39587 17 ft 24 kts 216°
2026-05-07 13:20 43.68716 10.39446 17 ft 25 kts 217°
2026-05-07 13:20 43.68570 10.39295 18 ft 27 kts 216°
2026-05-07 13:20 43.68416 10.39137 16 ft 29 kts 217°
2026-05-07 13:20 43.68251 10.38966 14 ft 31 kts 217°
2026-05-07 13:21 43.68085 10.38795 13 ft 24 kts 217°
2026-05-07 13:21 43.67949 10.38655 14 ft 25 kts 217°
2026-05-07 13:21 43.67807 10.38506 15 ft 26 kts 216°
2026-05-07 13:21 43.67656 10.38351 13 ft 28 kts 217°
2026-05-07 13:22 43.67504 10.38194 15 ft 23 kts 217°
2026-05-07 13:22 43.67410 10.38111 15 ft 9 kts 195°
2026-05-07 13:22 43.67358 10.38156 15 ft 8 kts 124°
2026-05-07 13:22 43.67313 10.38236 15 ft 12 kts 126°
2026-05-07 13:23 43.67315 10.38332 15 ft 7 kts 39°
2026-05-07 13:23 43.67365 10.38385 16 ft 16 kts 38°
2026-05-07 13:23 43.67639 10.38665 19 ft 83 kts 37°
2026-05-07 13:23 43.68261 10.39308 19 ft 137 kts 37°
2026-05-07 13:24 43.69147 10.40224 65 ft 175 kts 37°
2026-05-07 13:24 43.70154 10.41288 473 ft 187 kts 38°
2026-05-07 13:24 43.71191 10.42361 1146 ft 188 kts 33°
2026-05-07 13:24 43.72447 10.43167 1322 ft 210 kts 14°
2026-05-07 13:25 43.73903 10.43348 1895 ft 212 kts 356°
2026-05-07 13:25 43.75331 10.42899 2609 ft 210 kts 337°
2026-05-07 13:25 43.76572 10.41843 3318 ft 209 kts 316°
2026-05-07 13:25 43.77484 10.40317 4079 ft 207 kts 298°
2026-05-07 13:26 43.78018 10.38463 4815 ft 209 kts 281°
2026-05-07 13:26 43.78278 10.36469 5387 ft 219 kts 280°
2026-05-07 13:26 43.78553 10.34383 6140 ft 221 kts 280°
2026-05-07 13:26 43.78695 10.32175 6545 ft 243 kts 271°
2026-05-07 13:27 43.78698 10.29738 6972 ft 261 kts 269°
2026-05-07 13:27 43.78661 10.27182 7664 ft 269 kts 268°
2026-05-07 13:27 43.78611 10.24586 8501 ft 271 kts 268°
2026-05-07 13:27 43.78564 10.21962 9332 ft 274 kts 268°
2026-05-07 13:28 43.78519 10.19309 10112 ft 277 kts 268°
2026-05-07 13:28 43.78490 10.17483 10439 ft 288 kts 268°
2026-05-07 13:28 43.78447 10.14606 10625 ft 311 kts 268°
2026-05-07 13:28 43.78403 10.11527 10920 ft 327 kts 268°
2026-05-07 13:29 43.78357 10.08341 11500 ft 333 kts 268°
2026-05-07 13:29 43.78312 10.05118 12162 ft 337 kts 268°
2026-05-07 13:29 43.78267 10.01908 12811 ft 340 kts 269°
2026-05-07 13:29 43.78223 9.98620 13488 ft 343 kts 269°
2026-05-07 13:30 43.78178 9.95256 14135 ft 347 kts 269°
2026-05-07 13:30 43.78131 9.91911 14742 ft 349 kts 269°
2026-05-07 13:30 43.78083 9.88544 15346 ft 351 kts 269°
2026-05-07 13:30 43.78035 9.85154 15942 ft 353 kts 268°
2026-05-07 13:31 43.77982 9.81745 16538 ft 356 kts 268°
2026-05-07 13:31 43.77926 9.78355 17113 ft 359 kts 268°
2026-05-07 13:31 43.77866 9.74890 17711 ft 361 kts 268°
2026-05-07 13:31 43.77807 9.71407 18317 ft 364 kts 268°
2026-05-07 13:32 43.77750 9.67891 18852 ft 366 kts 269°
2026-05-07 13:32 43.77943 9.64370 19431 ft 369 kts 279°
2026-05-07 13:32 43.78679 9.60954 20020 ft 374 kts 291°
2026-05-07 13:32 43.79950 9.57795 20602 ft 379 kts 303°
2026-05-07 13:33 43.81709 9.55046 21155 ft 386 kts 314°
2026-05-07 13:33 43.83811 9.52694 21688 ft 390 kts 318°
2026-05-07 13:33 43.85949 9.50359 22190 ft 392 kts 317°
2026-05-07 13:33 43.88098 9.48010 22680 ft 395 kts 317°
2026-05-07 13:34 43.90263 9.45640 23176 ft 398 kts 317°
2026-05-07 13:34 43.94631 9.40850 24022 ft 403 kts 317°
2026-05-07 13:34 43.96833 9.38433 24416 ft 405 kts 317°
2026-05-07 13:35 43.99043 9.36001 24808 ft 406 kts 316°
2026-05-07 13:35 44.01264 9.33558 25195 ft 408 kts 316°
2026-05-07 13:35 44.03493 9.31108 25583 ft 409 kts 316°
2026-05-07 13:35 44.05726 9.28647 25990 ft 410 kts 316°
2026-05-07 13:36 44.07964 9.26173 26389 ft 411 kts 316°
2026-05-07 13:36 44.10204 9.23690 26762 ft 413 kts 316°
2026-05-07 13:36 44.12454 9.21193 27125 ft 415 kts 316°
2026-05-07 13:36 44.14714 9.18688 27486 ft 416 kts 316°
2026-05-07 13:37 44.16983 9.16176 27848 ft 418 kts 316°
2026-05-07 13:37 44.19269 9.13646 28207 ft 420 kts 316°
2026-05-07 13:37 44.21557 9.11106 28555 ft 422 kts 315°
2026-05-07 13:37 44.23852 9.08549 28894 ft 423 kts 315°
2026-05-07 13:38 44.26151 9.05988 29370 ft 422 kts 315°
2026-05-07 13:38 44.28438 9.03441 29928 ft 419 kts 315°
2026-05-07 13:38 44.30704 9.00915 30424 ft 416 kts 315°
2026-05-07 13:38 44.32963 8.98393 30846 ft 415 kts 315°
2026-05-07 13:39 44.35214 8.95876 31249 ft 414 kts 315°
2026-05-07 13:39 44.37464 8.93359 31644 ft 414 kts 315°
2026-05-07 13:39 44.39707 8.90848 32057 ft 413 kts 314°
2026-05-07 13:39 44.41944 8.88338 32475 ft 412 kts 314°
2026-05-07 13:40 44.44179 8.85829 32881 ft 411 kts 314°
2026-05-07 13:40 44.46410 8.83323 33274 ft 410 kts 314°
2026-05-07 13:40 44.48633 8.80823 33620 ft 410 kts 314°
2026-05-07 13:40 44.50819 8.78366 33989 ft 410 kts 314°
2026-05-07 13:41 44.53040 8.75867 34324 ft 409 kts 314°
2026-05-07 13:41 44.55259 8.73365 34600 ft 409 kts 314°
2026-05-07 13:41 44.57478 8.70855 34885 ft 410 kts 314°
2026-05-07 13:41 44.59698 8.68338 35147 ft 411 kts 314°
2026-05-07 13:42 44.61924 8.65816 35402 ft 411 kts 314°
2026-05-07 13:42 44.64153 8.63291 35650 ft 412 kts 315°
2026-05-07 13:42 44.66385 8.60765 35883 ft 413 kts 315°
2026-05-07 13:42 44.68629 8.58222 35984 ft 416 kts 315°
2026-05-07 13:43 44.70897 8.55640 35984 ft 422 kts 315°
2026-05-07 13:43 44.75485 8.50421 35980 ft 426 kts 315°
2026-05-07 13:44 44.80093 8.45180 35976 ft 426 kts 315°
2026-05-07 13:44 44.84692 8.39919 35978 ft 426 kts 315°
2026-05-07 13:45 44.89288 8.34657 36001 ft 426 kts 315°
2026-05-07 13:45 44.93883 8.29386 35997 ft 426 kts 315°
2026-05-07 13:46 44.98534 8.24193 35995 ft 427 kts 316°
2026-05-07 13:46 45.03260 8.19116 35995 ft 427 kts 317°
2026-05-07 13:47 45.07987 8.14035 35986 ft 426 kts 316°
2026-05-07 13:47 45.12664 8.08944 35997 ft 426 kts 316°
2026-05-07 13:48 45.17351 8.03806 36009 ft 426 kts 316°
2026-05-07 13:48 45.22035 7.98664 36008 ft 426 kts 316°
2026-05-07 13:49 45.26723 7.93515 36007 ft 426 kts 316°
2026-05-07 13:49 45.31374 7.88388 36028 ft 426 kts 316°
2026-05-07 13:50 45.36053 7.83231 36018 ft 426 kts 316°
2026-05-07 13:50 45.40731 7.78064 36012 ft 426 kts 316°
2026-05-07 13:51 45.45402 7.72881 36004 ft 425 kts 316°
2026-05-07 13:51 45.50072 7.67700 36000 ft 425 kts 316°
2026-05-07 13:52 45.54737 7.62512 36014 ft 425 kts 316°
2026-05-07 13:52 45.59393 7.57313 36003 ft 425 kts 316°
2026-05-07 13:53 45.64052 7.52109 35997 ft 425 kts 316°
2026-05-07 13:53 45.68708 7.46892 36000 ft 425 kts 316°
2026-05-07 13:54 45.73352 7.41665 35976 ft 425 kts 316°
2026-05-07 13:54 45.78001 7.36422 35963 ft 426 kts 317°
2026-05-07 13:55 45.82704 7.31286 35955 ft 428 kts 319°
2026-05-07 13:55 45.87581 7.26390 35960 ft 429 kts 320°
2026-05-07 13:56 45.92468 7.21547 35972 ft 430 kts 320°
2026-05-07 13:56 45.97377 7.16573 35992 ft 430 kts 320°
2026-05-07 13:57 46.02247 7.11569 35986 ft 431 kts 320°
2026-05-07 13:57 46.07093 7.06579 35984 ft 431 kts 320°
2026-05-07 13:58 46.11895 7.01647 35989 ft 431 kts 320°
2026-05-07 13:58 46.16777 6.96626 36014 ft 431 kts 320°
2026-05-07 13:59 46.21642 6.91600 36009 ft 432 kts 320°
2026-05-07 13:59 46.26528 6.86537 36008 ft 432 kts 320°
2026-05-07 14:00 46.31419 6.81463 36017 ft 433 kts 320°
2026-05-07 14:00 46.36181 6.76521 36011 ft 433 kts 320°
2026-05-07 14:01 46.41063 6.71423 36026 ft 433 kts 320°
2026-05-07 14:01 46.45713 6.65953 36025 ft 427 kts 310°
2026-05-07 14:02 46.49820 6.59724 36031 ft 428 kts 310°
2026-05-07 14:02 46.53944 6.53498 36022 ft 428 kts 310°
2026-05-07 14:03 46.58070 6.47261 36036 ft 428 kts 310°
2026-05-07 14:03 46.62189 6.41010 36036 ft 428 kts 310°
2026-05-07 14:04 46.66309 6.34748 36035 ft 429 kts 310°
2026-05-07 14:04 46.70391 6.28504 36049 ft 429 kts 310°
2026-05-07 14:05 46.74499 6.22202 36037 ft 429 kts 310°
2026-05-07 14:05 46.78612 6.15898 36043 ft 429 kts 310°
2026-05-07 14:06 46.82718 6.09580 36064 ft 429 kts 310°
2026-05-07 14:06 46.86820 6.03242 36048 ft 429 kts 310°
2026-05-07 14:07 46.90921 5.96892 36060 ft 430 kts 310°
2026-05-07 14:07 46.95159 5.90716 36043 ft 433 kts 318°
2026-05-07 14:08 47.00366 5.86154 36044 ft 439 kts 328°
2026-05-07 14:08 47.05772 5.82009 36055 ft 439 kts 328°
2026-05-07 14:09 47.11176 5.77838 36053 ft 439 kts 328°
2026-05-07 14:09 47.16581 5.73663 36055 ft 439 kts 328°
2026-05-07 14:10 47.21993 5.69478 36054 ft 440 kts 328°
2026-05-07 14:10 47.27406 5.65283 36062 ft 440 kts 329°
2026-05-07 14:11 47.32818 5.61080 36057 ft 440 kts 329°
2026-05-07 14:11 47.38231 5.56863 36056 ft 440 kts 328°
2026-05-07 14:12 47.43636 5.52634 36056 ft 440 kts 328°
2026-05-07 14:12 47.49039 5.48385 36071 ft 439 kts 327°
2026-05-07 14:13 47.53756 5.42910 36072 ft 432 kts 309°
2026-05-07 14:13 47.57409 5.35846 36064 ft 429 kts 304°
2026-05-07 14:14 47.60929 5.28763 36065 ft 430 kts 304°
2026-05-07 14:14 47.64477 5.21629 36065 ft 430 kts 304°
2026-05-07 14:15 47.68017 5.14485 36065 ft 430 kts 303°
2026-05-07 14:15 47.71548 5.07313 36079 ft 430 kts 303°
2026-05-07 14:16 47.75074 5.00128 36070 ft 431 kts 304°
2026-05-07 14:16 47.78608 4.92933 36069 ft 431 kts 304°
2026-05-07 14:17 47.82139 4.85730 36072 ft 431 kts 303°
2026-05-07 14:17 47.85067 4.79730 36074 ft 431 kts 303°
2026-05-07 14:18 47.88588 4.72492 36069 ft 431 kts 303°
2026-05-07 14:18 47.92107 4.65256 36082 ft 431 kts 303°
2026-05-07 14:19 47.95623 4.58000 36078 ft 432 kts 303°
2026-05-07 14:19 47.99137 4.50725 36078 ft 432 kts 303°
2026-05-07 14:20 48.02644 4.43440 36077 ft 432 kts 303°
2026-05-07 14:20 48.06147 4.36142 36077 ft 432 kts 303°
2026-05-07 14:21 48.09652 4.28833 36082 ft 432 kts 303°
2026-05-07 14:21 48.13150 4.21514 36088 ft 432 kts 303°
2026-05-07 14:22 48.17211 4.12996 36096 ft 433 kts 303°
2026-05-07 14:22 48.20136 4.06843 36096 ft 433 kts 303°
2026-05-07 14:23 48.23618 3.99491 36096 ft 433 kts 303°
2026-05-07 14:23 48.27509 3.92569 36095 ft 436 kts 311°
2026-05-07 14:24 48.31703 3.85998 36092 ft 436 kts 311°
2026-05-07 14:24 48.35846 3.79442 36091 ft 436 kts 310°
2026-05-07 14:25 48.40014 3.72822 36085 ft 436 kts 311°
2026-05-07 14:25 48.44221 3.66162 36081 ft 436 kts 311°
2026-05-07 14:26 48.48373 3.59580 36076 ft 436 kts 311°
2026-05-07 14:26 48.52536 3.52931 36079 ft 436 kts 311°
2026-05-07 14:27 48.56697 3.46266 36071 ft 436 kts 311°
2026-05-07 14:27 48.60858 3.39591 36085 ft 437 kts 311°
2026-05-07 14:28 48.64987 3.32963 36078 ft 437 kts 311°
2026-05-07 14:28 48.69047 3.26427 36072 ft 437 kts 310°
2026-05-07 14:29 48.73203 3.19707 36069 ft 437 kts 310°
2026-05-07 14:29 48.77358 3.12972 36064 ft 437 kts 310°
2026-05-07 14:30 48.81506 3.06220 36067 ft 437 kts 310°
2026-05-07 14:30 48.86043 3.00065 36066 ft 442 kts 324°
2026-05-07 14:31 48.91365 2.95358 36060 ft 443 kts 327°
2026-05-07 14:31 48.96714 2.90686 36060 ft 443 kts 327°
2026-05-07 14:32 49.02029 2.86032 36061 ft 443 kts 327°
2026-05-07 14:32 49.07378 2.81338 36071 ft 444 kts 327°
2026-05-07 14:33 49.12707 2.76647 36069 ft 444 kts 327°
2026-05-07 14:33 49.18046 2.71927 36064 ft 444 kts 327°
2026-05-07 14:34 49.23378 2.67191 36064 ft 444 kts 327°
2026-05-07 14:34 49.28722 2.62439 36080 ft 444 kts 327°
2026-05-07 14:35 49.34032 2.57714 36078 ft 444 kts 327°
2026-05-07 14:35 49.39375 2.52952 36071 ft 444 kts 327°
2026-05-07 14:36 49.44709 2.48166 36072 ft 444 kts 327°
2026-05-07 14:36 49.50040 2.43375 36084 ft 444 kts 327°
2026-05-07 14:37 49.55412 2.38660 36078 ft 445 kts 328°
2026-05-07 14:37 49.63575 2.31837 36082 ft 445 kts 329°
2026-05-07 14:38 49.69008 2.27258 36083 ft 445 kts 328°
2026-05-07 14:38 49.74427 2.22642 36095 ft 445 kts 328°
2026-05-07 14:39 49.79852 2.18023 36091 ft 445 kts 328°
2026-05-07 14:39 49.85272 2.13382 36087 ft 445 kts 328°
2026-05-07 14:40 49.90690 2.08735 36088 ft 445 kts 328°
2026-05-07 14:40 49.96115 2.04073 36099 ft 445 kts 328°
2026-05-07 14:41 50.01531 1.99415 36091 ft 445 kts 328°
2026-05-07 14:41 50.06941 1.94739 36092 ft 445 kts 328°
2026-05-07 14:42 50.12309 1.90073 36091 ft 445 kts 328°
2026-05-07 14:42 50.17557 1.85031 36085 ft 441 kts 318°
2026-05-07 14:43 50.21990 1.78490 36097 ft 439 kts 313°
2026-05-07 14:43 50.26361 1.71826 36093 ft 439 kts 313°
2026-05-07 14:44 50.30732 1.65144 36089 ft 439 kts 313°
2026-05-07 14:44 50.35101 1.58463 36096 ft 439 kts 313°
2026-05-07 14:45 50.39449 1.51793 35728 ft 433 kts 313°
2026-05-07 14:45 50.41612 1.48458 34256 ft 440 kts 313°
2026-05-07 14:45 50.43808 1.45062 32567 ft 446 kts 313°
2026-05-07 14:46 50.46014 1.41649 31303 ft 443 kts 313°
2026-05-07 14:46 50.48160 1.38342 31028 ft 419 kts 313°
2026-05-07 14:46 50.50189 1.35197 30582 ft 402 kts 312°
2026-05-07 14:46 50.52095 1.32083 30049 ft 389 kts 310°
2026-05-07 14:47 50.53910 1.28990 29505 ft 385 kts 309°
2026-05-07 14:47 50.55704 1.25863 29000 ft 386 kts 309°
2026-05-07 14:47 50.57498 1.22726 28474 ft 385 kts 309°
2026-05-07 14:47 50.59324 1.19645 27969 ft 384 kts 311°
2026-05-07 14:48 50.61190 1.16647 27454 ft 383 kts 312°
2026-05-07 14:48 50.63082 1.13690 26945 ft 383 kts 313°
2026-05-07 14:48 50.64976 1.10754 26456 ft 383 kts 313°
2026-05-07 14:48 50.66875 1.07807 25925 ft 383 kts 313°
2026-05-07 14:49 50.68762 1.04858 25450 ft 383 kts 313°
2026-05-07 14:49 50.70647 1.01889 24963 ft 382 kts 313°
2026-05-07 14:49 50.72496 0.98954 24495 ft 382 kts 312°
2026-05-07 14:49 50.74368 0.95972 24024 ft 382 kts 312°
2026-05-07 14:50 50.76237 0.92986 23546 ft 382 kts 312°
2026-05-07 14:50 50.78098 0.90010 23060 ft 380 kts 312°
2026-05-07 14:50 50.79948 0.87049 22608 ft 377 kts 312°
2026-05-07 14:50 50.81783 0.84113 22157 ft 374 kts 313°
2026-05-07 14:51 50.83607 0.81200 21694 ft 371 kts 313°
2026-05-07 14:51 50.85416 0.78307 21232 ft 369 kts 313°
2026-05-07 14:51 50.87213 0.75431 20765 ft 366 kts 313°
2026-05-07 14:51 50.88997 0.72573 20275 ft 364 kts 313°
2026-05-07 14:52 50.90771 0.69727 19773 ft 362 kts 313°
2026-05-07 14:52 50.92535 0.66890 19261 ft 360 kts 313°
2026-05-07 14:52 50.94288 0.64064 18749 ft 359 kts 313°
2026-05-07 14:52 50.96038 0.61241 18222 ft 358 kts 313°
2026-05-07 14:53 50.97782 0.58421 17587 ft 359 kts 313°
2026-05-07 14:53 50.99536 0.55580 16854 ft 362 kts 313°
2026-05-07 14:53 51.01302 0.52721 16155 ft 364 kts 313°
2026-05-07 14:53 51.03079 0.49842 15450 ft 366 kts 313°
2026-05-07 14:54 51.04862 0.46946 14749 ft 368 kts 313°
2026-05-07 14:54 51.06661 0.44022 14051 ft 370 kts 313°
2026-05-07 14:54 51.08472 0.41148 13422 ft 369 kts 314°
2026-05-07 14:54 51.10112 0.38628 12921 ft 366 kts 315°
2026-05-07 14:55 51.11941 0.35868 12326 ft 358 kts 315°
2026-05-07 14:55 51.13736 0.33173 11479 ft 350 kts 315°
2026-05-07 14:55 51.15435 0.30616 11315 ft 323 kts 315°
2026-05-07 14:55 51.17001 0.28248 11060 ft 309 kts 315°
2026-05-07 14:56 51.18539 0.25904 10838 ft 303 kts 315°
2026-05-07 14:56 51.20048 0.23592 10599 ft 298 kts 314°
2026-05-07 14:56 51.21549 0.21286 10175 ft 301 kts 314°
2026-05-07 14:56 51.23042 0.18989 9915 ft 297 kts 314°
2026-05-07 14:57 51.24525 0.16706 9553 ft 296 kts 314°
2026-05-07 14:57 51.26005 0.14425 9208 ft 294 kts 314°
2026-05-07 14:57 51.27472 0.12164 8873 ft 292 kts 315°
2026-05-07 14:57 51.28927 0.09915 8553 ft 290 kts 314°
2026-05-07 14:58 51.30358 0.07700 8402 ft 283 kts 314°
2026-05-07 14:58 51.31749 0.05553 8282 ft 273 kts 315°
2026-05-07 14:58 51.33096 0.03472 8240 ft 264 kts 315°
2026-05-07 14:58 51.34320 0.01272 7752 ft 267 kts 296°
2026-05-07 14:59 51.34823 -0.01487 7595 ft 255 kts 275°
2026-05-07 14:59 51.34955 -0.04271 7413 ft 249 kts 272°
2026-05-07 14:59 51.35038 -0.07009 7193 ft 245 kts 271°
2026-05-07 14:59 51.35110 -0.09701 6992 ft 240 kts 271°
2026-05-07 15:00 51.35180 -0.12359 6791 ft 238 kts 271°
2026-05-07 15:00 51.35245 -0.14997 6593 ft 237 kts 271°
2026-05-07 15:00 51.35305 -0.17633 6391 ft 237 kts 271°
2026-05-07 15:00 51.35363 -0.20256 6182 ft 235 kts 271°
2026-05-07 15:01 51.35422 -0.22870 5974 ft 234 kts 271°
2026-05-07 15:01 51.35483 -0.25467 5765 ft 233 kts 271°
2026-05-07 15:01 51.35539 -0.28058 5558 ft 233 kts 271°
2026-05-07 15:01 51.35596 -0.30649 5352 ft 232 kts 271°
2026-05-07 15:02 51.35653 -0.33219 5149 ft 232 kts 271°
2026-05-07 15:02 51.35709 -0.35789 4943 ft 230 kts 271°
2026-05-07 15:02 51.35767 -0.38345 4736 ft 229 kts 271°
2026-05-07 15:02 51.35822 -0.40892 4526 ft 229 kts 271°
2026-05-07 15:03 51.35874 -0.43443 4317 ft 229 kts 271°
2026-05-07 15:03 51.35929 -0.45979 4109 ft 228 kts 271°
2026-05-07 15:03 51.35982 -0.48511 3904 ft 228 kts 271°
2026-05-07 15:03 51.36033 -0.51045 3697 ft 228 kts 271°
2026-05-07 15:04 51.36082 -0.53576 3494 ft 228 kts 271°
2026-05-07 15:04 51.36132 -0.56101 3290 ft 226 kts 271°
2026-05-07 15:04 51.36186 -0.58614 3103 ft 225 kts 271°
2026-05-07 15:04 51.36242 -0.61119 3009 ft 225 kts 271°
2026-05-07 15:05 51.36294 -0.63632 3006 ft 227 kts 271°
2026-05-07 15:05 51.36346 -0.66102 3005 ft 215 kts 271°
2026-05-07 15:05 51.36403 -0.68453 3005 ft 209 kts 271°
2026-05-07 15:05 51.36461 -0.70758 3007 ft 207 kts 271°
2026-05-07 15:06 51.36500 -0.72275 3006 ft 206 kts 272°
2026-05-07 15:06 51.36835 -0.74471 2997 ft 203 kts 301°
2026-05-07 15:06 51.38286 -0.76039 3044 ft 194 kts 350°
2026-05-07 15:06 51.39631 -0.76157 3021 ft 192 kts 359°
2026-05-07 15:07 51.40964 -0.76113 3002 ft 191 kts
2026-05-07 15:07 51.42296 -0.76053 3003 ft 191 kts
2026-05-07 15:07 51.43168 -0.76009 3005 ft 191 kts
2026-05-07 15:07 51.44516 -0.75939 3005 ft 191 kts
2026-05-07 15:08 51.45818 -0.75712 2997 ft 192 kts 18°
2026-05-07 15:08 51.46951 -0.74562 3001 ft 192 kts 48°
2026-05-07 15:08 51.47566 -0.72723 2981 ft 192 kts 78°
2026-05-07 15:08 51.47650 -0.70600 2809 ft 191 kts 91°
2026-05-07 15:09 51.47654 -0.68487 2568 ft 189 kts 91°
2026-05-07 15:09 51.47663 -0.66400 2320 ft 186 kts 90°
2026-05-07 15:09 51.47673 -0.64336 2070 ft 184 kts 90°
2026-05-07 15:09 51.47684 -0.62320 1825 ft 177 kts 90°
2026-05-07 15:10 51.47694 -0.60390 1612 ft 170 kts 91°
2026-05-07 15:10 51.47703 -0.58518 1368 ft 167 kts 91°
2026-05-07 15:10 51.47712 -0.56755 1145 ft 151 kts 90°
2026-05-07 15:10 51.47720 -0.55118 943 ft 144 kts 91°
2026-05-07 15:11 51.47728 -0.53540 752 ft 139 kts 90°
2026-05-07 15:11 51.47737 -0.52011 572 ft 135 kts 89°
2026-05-07 15:11 51.47743 -0.50509 403 ft 134 kts 90°
2026-05-07 15:11 51.47749 -0.49015 207 ft 134 kts 89°
2026-05-07 15:12 51.47752 -0.47551 85 ft 120 kts 89°
2026-05-07 15:12 51.47758 -0.46645 91 ft 55 kts 90°
2026-05-07 15:12 51.47753 -0.46238 91 ft 22 kts 107°
2026-05-07 15:12 51.47648 -0.46087 87 ft 14 kts 147°
2026-05-07 15:13 51.47595 -0.46157 88 ft 13 kts 265°
2026-05-07 15:13 51.47593 -0.46313 86 ft 15 kts 269°
2026-05-07 15:13 51.47593 -0.46495 86 ft 18 kts 269°
2026-05-07 15:13 51.47592 -0.46705 86 ft 20 kts 269°
2026-05-07 15:14 51.47582 -0.46943 89 ft 23 kts 270°
2026-05-07 15:14 51.47582 -0.47209 90 ft 25 kts 269°
2026-05-07 15:14 51.47581 -0.47503 87 ft 26 kts 270°
2026-05-07 15:14 51.47579 -0.47780 90 ft 25 kts 269°
2026-05-07 15:15 51.47579 -0.48074 90 ft 28 kts 270°
2026-05-07 15:15 51.47578 -0.48370 88 ft 21 kts 269°
2026-05-07 15:15 51.47515 -0.48476 86 ft 16 kts 180°
2026-05-07 15:15 51.47397 -0.48474 86 ft 14 kts 180°
2026-05-07 15:16 51.47361 -0.48491 86 ft 4 kts 243°
2026-05-07 15:16 51.47361 -0.48544 86 ft 6 kts 270°
2026-05-07 15:16 51.47361 -0.48585 86 ft 1 kts 269°
2026-05-07 15:16 51.47361 -0.48586 86 ft 0 kts 269°